Location: Bun Machan
(52.1403°N, 7.3744°W)
Time: 17:56:56
(UTC+00:00)

CZ-4C R/B - Pass Details

Date: 14 July 2020
Orbit: 632 x 1370 km, 63.4° (Epoch: 12 August)

Event Time Altitude Azimuth Distance (km) Brightness Sun altitude
Rises 00:12:41 0° 313° (NW) 3,826 6.4 -16.1°
Reaches altitude 10° 00:15:19 10° 306° (NW) 2,973 5.6 -16.1°
Maximum altitude 00:21:57 41° 240° (WSW) 1,727 3.6 -16.2°
Enters shadow 00:26:33 22° 186° (S) 2,505 4.0 -16.2°
